New Paris, IN

9:49 AM EST on February 06, 2016 (GMT -0500)
Goshen Municipal

Weather History for KGSH - November, 2012

Change the Weather History Date:

Wednesday, November 21, 2012

  Actual Average Record
Temperature  
Mean Temperature 43 °F -  
Max Temperature 53 °F 44 °F 66 °F (1990)
Min Temperature 33 °F 31 °F 8 °F (1964)
Degree Days  
Heating Degree Days 22    
Moisture  
Dew Point 39 °F    
Average Humidity 92    
Maximum Humidity 100    
Minimum Humidity 74    
Precipitation  
Precipitation 0.00 in - - ()
Sea Level Pressure  
Sea Level Pressure 30.20 in    
Wind  
Wind Speed 1 mph (South)    
Max Wind Speed 7 mph    
Max Gust Speed -    
Visibility 1 miles    
Events Fog    
Averages and records for this station are not official NWS values.
T = Trace of Precipitation, MM = Missing Value Source: NWS Daily Summary

Daily Weather History Graph

Daily Weather History Graph

Search for Another Location

Airport or City:

Trip Planner

Search our weather history database for the weather conditions in past years. The results will help you decide how hot, cold, wet, or windy it might be!

Date:

Astronomy

Nov. 21, 2012 Rise Set
Actual Time 7:39 AM EST 5:18 PM EST
Civil Twilight 7:09 AM EST 5:48 PM EST
Nautical Twilight 6:35 AM EST 6:22 PM EST
Astronomical Twilight 6:02 AM EST 6:55 PM EST
Moon 1:38 PM EST (11/21) 12:53 AM EST (11/21)
Length of Visible Light 10h 39m
Length of Day
9h 38m
First Quarter, 61% of the Moon is Illuminated
Nov 21
First Quarter
Nov 28
Full
Dec 6
Last Quarter
Dec 13
New
Dec 20
First Quarter

Hourly Weather History & Observations

Time (EST) Temp. Windchill Dew Point Humidity Pressure Visibility Wind Dir Wind Speed Gust Speed Precip Events Conditions
12:04 AM 42.8 °F - 39.2 °F 87% 30.16 in 3.0 mi Calm Calm - N/A   Clear
12:13 AM 42.8 °F - 39.2 °F 87% 30.16 in 2.5 mi Calm Calm - N/A   Clear
12:53 AM 41.0 °F - 37.9 °F 89% 30.17 in 1.8 mi Calm Calm - N/A   Clear
1:23 AM 39.2 °F - 35.6 °F 87% 30.15 in 0.5 mi Calm Calm - N/A Fog Fog
1:28 AM 39.2 °F - 37.4 °F 93% 30.15 in 0.2 mi Calm Calm - N/A Fog Fog
1:49 AM 37.4 °F - 35.6 °F 93% 30.16 in 0.2 mi Calm Calm - N/A Fog Fog
1:53 AM 36.0 °F - 35.1 °F 97% 30.18 in 0.2 mi Calm Calm - N/A Fog Fog
2:23 AM 35.6 °F - 33.8 °F 93% 30.17 in 0.2 mi Calm Calm - N/A Fog Fog
2:53 AM 33.1 °F - 32.0 °F 96% 30.20 in 0.2 mi Calm Calm - N/A Fog Fog
3:16 AM 35.6 °F - 32.0 °F 87% 30.18 in 0.2 mi Calm Calm - N/A Fog Fog
3:31 AM 35.6 °F - 33.8 °F 93% 30.19 in 0.2 mi Calm Calm - N/A Fog Fog
3:43 AM 33.8 °F - 32.0 °F 93% 30.19 in 0.2 mi Calm Calm - N/A Fog Fog
3:53 AM 35.1 °F - 33.1 °F 92% 30.20 in 0.2 mi Calm Calm - N/A Fog Fog
4:53 AM 37.0 °F - 36.0 °F 96% 30.21 in 0.2 mi Calm Calm - N/A Fog Fog
5:53 AM 37.0 °F 34.5 °F 36.0 °F 96% 30.20 in 0.2 mi SSE 3.5 mph - N/A Fog Fog
6:53 AM 36.0 °F - 35.1 °F 97% 30.22 in 0.2 mi Calm Calm - N/A Fog Fog
7:53 AM 36.0 °F - 35.1 °F 97% 30.24 in 0.2 mi Calm Calm - N/A Fog Fog
8:53 AM 36.0 °F - 35.1 °F 97% 30.25 in 0.2 mi Calm Calm - N/A Fog Fog
9:53 AM 37.0 °F - 37.0 °F 100% 30.26 in 0.2 mi Calm Calm - N/A Fog Fog
10:53 AM 39.9 °F - 39.0 °F 97% 30.28 in 0.2 mi Calm Calm - N/A Fog Fog
11:53 AM 42.1 °F - 41.0 °F 96% 30.27 in 0.2 mi Calm Calm - N/A Fog Fog
12:11 PM 42.8 °F - 42.8 °F 100% 30.25 in 0.2 mi Calm Calm - N/A Fog Fog
12:53 PM 44.1 °F 41.5 °F 43.0 °F 96% 30.25 in 0.2 mi SSW 4.6 mph - N/A Fog Fog
1:13 PM 44.6 °F 42.2 °F 42.8 °F 93% 30.23 in 0.8 mi SW 4.6 mph - N/A   Overcast
1:20 PM 44.6 °F 41.4 °F 42.8 °F 93% 30.23 in 1.2 mi SSW 5.8 mph - N/A   Overcast
1:53 PM 46.0 °F 43.9 °F 44.1 °F 93% 30.24 in 1.5 mi SSW 4.6 mph - N/A   Overcast
2:12 PM 48.2 °F - 44.6 °F 87% 30.21 in 2.0 mi SW 4.6 mph - N/A   Mostly Cloudy
2:24 PM 50.0 °F - 44.6 °F 82% 30.20 in 2.5 mi SW 3.5 mph - N/A   Haze
3:53 PM 53.1 °F - 45.0 °F 74% 30.21 in 3.0 mi SW 3.5 mph - N/A   Haze
4:53 PM 50.0 °F - 43.0 °F 77% 30.19 in 3.0 mi SSW 3.5 mph - N/A   Haze
5:53 PM 48.0 °F - 42.1 °F 80% 30.19 in 4.0 mi South 3.5 mph - N/A   Haze
6:49 PM 44.6 °F 43.1 °F 41.0 °F 87% 30.18 in 2.5 mi SSE 3.5 mph - N/A   Clear
6:53 PM 44.1 °F - 41.0 °F 89% 30.20 in 2.5 mi Calm Calm - N/A   Clear
7:30 PM 39.2 °F 37.0 °F 39.2 °F 100% 30.17 in 1.5 mi SSE 3.5 mph - N/A   Clear
7:53 PM 42.1 °F 40.2 °F 39.0 °F 89% 30.19 in 2.0 mi South 3.5 mph - N/A   Clear
8:53 PM 41.0 °F 37.1 °F 39.0 °F 93% 30.19 in 2.0 mi South 5.8 mph - N/A   Clear
9:00 PM 41.0 °F 37.1 °F 39.2 °F 93% 30.17 in 1.8 mi South 5.8 mph - N/A   Clear
9:53 PM 41.0 °F 37.1 °F 39.0 °F 93% 30.19 in 1.8 mi South 5.8 mph - N/A   Clear
10:53 PM 41.0 °F 38.0 °F 39.0 °F 93% 30.18 in 1.8 mi South 4.6 mph - N/A   Clear
11:53 PM 41.0 °F 36.4 °F 39.0 °F 93% 30.18 in 2.0 mi South 6.9 mph - N/A   Clear